This demonstration page uses our WeatherBlox Daily Observations layout. Learn more.

Left ArrowRight Arrow

Hourly Observations for June 5, 2017

Temp ( °F °C ) Dew Point ( °F °C ) Humidity (%) Winds ( mph kmh ) Pressure ( in mb ) Visibility ( mi km ) Precip ( " mm )
12:56 am 00:56 Clear 65 18.1 62 16.9 93 93 Calm 29.82 1010 10 16 0.00 0.00
1:56 am 01:56 Clear 63 17.2 62 16.4 95 95 Calm 29.81 1009 10 16 0.00 0.00
2:56 am 02:56 Clear 63 17.1 62 16.6 97 97 Calm 29.82 1010 10 16 0.00 0.00
3:56 am 03:56 Clear 62 16.5 61 16 97 97 Calm 29.82 1010 10 16 0.00 0.00
4:56 am 04:56 Clear 60 15.6 59 15.1 97 97 Calm 29.82 1010 10 16 0.00 0.00
5:56 am 05:56 Sunny 60 15.8 60 15.5 98 98 Calm 29.83 1010 10 16 0.00 0.00
6:56 am 06:56 Sunny 62 16.4 61 16.1 98 98 Calm 29.83 1010 10 16 0.00 0.00
7:56 am 07:56 Sunny 69 20.8 64 18 84 84 Calm 29.84 1010 10 16 0.00 0.00
8:56 am 08:56 Sunny 76 24.6 67 19.4 73 73 N 3 6 29.85 1011 10 16 0.00 0.03
9:56 am 09:56 Sunny 79 25.9 58 14.7 50 50 Calm 29.86 1011 10 16 0.00 0.00
10:56 am 10:56 Sunny 83 28.6 56 13.3 39 39 ENE 5 7 29.87 1011 10 16 0.00 0.00
11:56 am 11:56 Sunny 87 30.4 54 12.3 33 33 NNE 5 7 29.87 1011 10 16 0.00 0.00
12:56 pm 12:56 Sunny 89 31.7 51 10.4 27 27 N 3 6 29.85 1011 10 16 0.00 0.00
1:56 pm 13:56 Sunny 90 32.4 47 8.6 23 23 NE 6 9 29.77 1008 10 16 0.00 0.00
2:56 pm 14:56 Sunny 91 32.8 48 8.9 23 23 NE 8 13 29.77 1008 10 16 0.00 0.00
3:56 pm 15:56 Sunny 92 33.3 48 8.7 22 22 NNE 7 11 29.74 1007 10 16 0.00 0.00
4:56 pm 16:56 Sunny 92 33.2 49 9.2 23 23 NNE 7 11 29.74 1007 10 16 0.00 0.00
5:56 pm 17:56 Sunny 90 32.4 49 9.2 24 24 NNE 8 13 29.74 1007 10 16 0.00 0.00
6:56 pm 18:56 Sunny 88 31.3 50 10 27 27 NNE 6 9 29.77 1008 10 16 0.00 0.00
7:56 pm 19:56 Sunny 86 29.9 50 9.9 29 29 NNE 6 9 29.80 1009 10 16 0.00 0.00
8:57 pm 20:57 Clear 75 23.9 58 14.6 56 56 Calm 29.87 1012 10 16 0.00 0.00
9:56 pm 21:56 Clear 68 19.9 58 14.3 70 70 Calm 29.88 1012 10 16 0.00 0.00
10:56 pm 22:56 Clear 70 21.1 49 9.3 47 47 NE 5 7 29.90 1012 10 16 0.00 0.00
11:56 pm 23:56 Clear 71 21.5 50 10 48 48 E 3 6 29.91 1013 10 16 0.00 0.00

Powered by AerisWeather